Time,TemperatureF,DewpointF,PressureIn,WindDirection,WindDirectionDegrees,WindSpeedMPH,WindSpeedGustMPH,Humidity,HourlyPrecipIn,Conditions,Clouds,dailyrainin,SoftwareType,DateUTC
2013-04-12 00:02:00,29.9,26.8,29.74,North,350,0.0,0.0,88,0.00,,,0.00,VWS V14.01,2013-04-12 05:02:00,
2013-04-12 00:08:00,29.9,26.8,29.74,North,352,0.0,0.0,88,0.00,,,0.00,VWS V14.01,2013-04-12 05:08:00,
2013-04-12 00:13:00,29.8,26.7,29.74,NNW,346,0.0,0.0,88,0.00,,,0.00,VWS V14.01,2013-04-12 05:13:00,
2013-04-12 00:18:00,29.7,26.6,29.74,North,7,0.0,0.0,88,0.00,,,0.00,VWS V14.01,2013-04-12 05:18:00,
2013-04-12 00:23:00,29.7,26.6,29.74,North,358,0.0,0.0,88,0.00,,,0.00,VWS V14.01,2013-04-12 05:23:00,
2013-04-12 00:28:00,29.6,26.5,29.74,NNE,13,0.0,0.0,88,0.00,,,0.00,VWS V14.01,2013-04-12 05:28:00,
2013-04-12 00:34:00,29.6,26.5,29.74,North,4,0.0,0.0,88,0.00,,,0.00,VWS V14.01,2013-04-12 05:34:00,
2013-04-12 00:39:00,29.5,26.4,29.74,North,6,0.0,0.0,88,0.00,,,0.00,VWS V14.01,2013-04-12 05:39:00,
2013-04-12 00:44:00,29.5,26.4,29.74,North,3,0.0,0.0,88,0.00,,,0.00,VWS V14.01,2013-04-12 05:44:00,
2013-04-12 00:49:00,29.4,26.3,29.74,North,353,0.0,0.0,88,0.00,,,0.00,VWS V14.01,2013-04-12 05:49:00,
2013-04-12 00:54:00,29.4,26.3,29.74,North,356,0.0,0.0,88,0.00,,,0.00,VWS V14.01,2013-04-12 05:54:00,
2013-04-12 01:00:00,29.3,26.2,29.74,North,6,0.0,0.0,88,0.00,,,0.00,VWS V14.01,2013-04-12 06:00:00,
2013-04-12 01:05:00,29.3,26.2,29.74,North,358,0.0,0.0,88,0.00,,,0.00,VWS V14.01,2013-04-12 06:05:00,
2013-04-12 01:10:00,29.2,26.1,29.74,North,10,0.0,0.0,88,0.00,,,0.00,VWS V14.01,2013-04-12 06:10:00,
2013-04-12 01:15:00,29.2,26.1,29.74,NNE,19,0.0,0.0,88,0.00,,,0.00,VWS V14.01,2013-04-12 06:15:00,
2013-04-12 01:21:00,29.2,26.1,29.74,North,2,0.0,0.0,88,0.00,,,0.00,VWS V14.01,2013-04-12 06:21:00,
2013-04-12 01:26:00,29.1,26.0,29.74,NNW,327,0.0,0.0,88,0.00,,,0.00,VWS V14.01,2013-04-12 06:26:00,
2013-04-12 01:31:00,29.0,25.9,29.74,North,2,0.0,0.0,88,0.00,,,0.00,VWS V14.01,2013-04-12 06:31:00,
2013-04-12 01:37:00,29.0,25.9,29.74,NNW,340,0.0,0.0,88,0.00,,,0.00,VWS V14.01,2013-04-12 06:37:00,
2013-04-12 01:42:00,28.9,25.8,29.74,North,2,0.0,0.0,88,0.00,,,0.00,VWS V14.01,2013-04-12 06:42:00,
2013-04-12 01:47:00,28.9,25.8,29.74,NNW,332,0.0,0.0,88,0.00,,,0.00,VWS V14.01,2013-04-12 06:47:00,
2013-04-12 01:52:00,28.8,25.7,29.74,North,351,0.0,0.0,88,0.00,,,0.00,VWS V14.01,2013-04-12 06:52:00,
2013-04-12 01:58:00,28.8,25.7,29.73,NNE,19,0.0,0.0,88,0.00,,,0.00,VWS V14.01,2013-04-12 06:58:00,
2013-04-12 02:03:00,28.7,25.6,29.73,North,8,0.0,0.0,88,0.00,,,0.00,VWS V14.01,2013-04-12 07:03:00,
2013-04-12 02:08:00,28.7,25.6,29.73,NE,34,0.0,0.0,88,0.00,,,0.00,VWS V14.01,2013-04-12 07:08:00,
2013-04-12 02:13:00,28.7,25.6,29.73,NNW,346,0.0,0.0,88,0.00,,,0.00,VWS V14.01,2013-04-12 07:13:00,
2013-04-12 02:18:00,28.6,25.5,29.73,North,352,0.0,0.0,88,0.00,,,0.00,VWS V14.01,2013-04-12 07:18:00,
2013-04-12 02:24:00,28.6,25.2,29.73,NNW,341,0.0,0.0,87,0.00,,,0.00,VWS V14.01,2013-04-12 07:24:00,
2013-04-12 02:29:00,28.6,25.2,29.73,North,355,0.0,0.0,87,0.00,,,0.00,VWS V14.01,2013-04-12 07:29:00,
2013-04-12 02:34:00,28.6,25.2,29.73,NNE,23,0.0,0.0,87,0.00,,,0.00,VWS V14.01,2013-04-12 07:34:00,
2013-04-12 02:39:00,28.5,25.1,29.73,North,5,0.0,0.0,87,0.00,,,0.00,VWS V14.01,2013-04-12 07:39:00,
2013-04-12 02:44:00,28.5,25.1,29.73,NNW,342,0.0,0.0,87,0.00,,,0.00,VWS V14.01,2013-04-12 07:44:00,
2013-04-12 02:49:00,28.5,25.1,29.73,North,352,0.0,0.0,87,0.00,,,0.00,VWS V14.01,2013-04-12 07:49:00,
2013-04-12 02:55:00,28.4,25.0,29.73,North,359,0.0,0.0,87,0.00,,,0.00,VWS V14.01,2013-04-12 07:55:00,
2013-04-12 03:00:00,28.4,25.0,29.73,North,360,0.0,0.0,87,0.00,,,0.00,VWS V14.01,2013-04-12 08:00:00,
2013-04-12 03:05:00,28.4,25.0,29.73,NNE,12,0.0,0.0,87,0.00,,,0.00,VWS V14.01,2013-04-12 08:05:00,
2013-04-12 03:10:00,28.3,24.9,29.73,NNW,339,0.0,0.0,87,0.00,,,0.00,VWS V14.01,2013-04-12 08:10:00,
2013-04-12 03:15:00,28.3,24.9,29.73,NNW,343,0.0,0.0,87,0.00,,,0.00,VWS V14.01,2013-04-12 08:15:00,
2013-04-12 03:21:00,28.2,24.8,29.73,NNW,348,0.0,0.0,87,0.00,,,0.00,VWS V14.01,2013-04-12 08:21:00,
2013-04-12 03:26:00,28.1,24.7,29.73,North,360,0.0,0.0,87,0.00,,,0.00,VWS V14.01,2013-04-12 08:26:00,
2013-04-12 03:32:00,28.1,24.7,29.73,NNW,328,0.0,0.0,87,0.00,,,0.00,VWS V14.01,2013-04-12 08:32:00,
2013-04-12 03:37:00,28.0,24.6,29.73,North,7,0.0,0.0,87,0.00,,,0.00,VWS V14.01,2013-04-12 08:37:00,
2013-04-12 03:42:00,28.0,24.6,29.73,North,360,0.0,0.0,87,0.00,,,0.00,VWS V14.01,2013-04-12 08:42:00,
2013-04-12 03:47:00,27.9,24.5,29.73,North,354,0.0,0.0,87,0.00,,,0.00,VWS V14.01,2013-04-12 08:47:00,
2013-04-12 03:53:00,27.9,24.5,29.73,NNW,341,0.0,0.0,87,0.00,,,0.00,VWS V14.01,2013-04-12 08:53:00,
2013-04-12 03:58:00,27.9,24.5,29.73,North,354,0.0,0.0,87,0.00,,,0.00,VWS V14.01,2013-04-12 08:58:00,
2013-04-12 04:03:00,27.8,24.4,29.73,NNW,327,0.0,0.0,87,0.00,,,0.00,VWS V14.01,2013-04-12 09:03:00,
2013-04-12 04:09:00,27.8,24.4,29.73,NNE,21,0.0,0.0,87,0.00,,,0.00,VWS V14.01,2013-04-12 09:09:00,
2013-04-12 04:14:00,27.8,24.4,29.73,NNW,334,0.0,0.0,87,0.00,,,0.00,VWS V14.01,2013-04-12 09:14:00,
2013-04-12 04:19:00,27.8,24.4,29.73,North,351,0.0,0.0,87,0.00,,,0.00,VWS V14.01,2013-04-12 09:19:00,
2013-04-12 04:24:00,27.7,24.3,29.73,NNW,335,0.0,0.0,87,0.00,,,0.00,VWS V14.01,2013-04-12 09:24:00,
2013-04-12 04:30:00,27.8,24.4,29.73,North,359,0.0,0.0,87,0.00,,,0.00,VWS V14.01,2013-04-12 09:30:00,
2013-04-12 04:35:00,27.7,24.3,29.73,North,4,0.0,0.0,87,0.00,,,0.00,VWS V14.01,2013-04-12 09:35:00,
2013-04-12 04:40:00,27.7,24.3,29.73,North,358,0.0,0.0,87,0.00,,,0.00,VWS V14.01,2013-04-12 09:40:00,
2013-04-12 04:45:00,27.7,24.3,29.73,NNW,343,0.0,0.0,87,0.00,,,0.00,VWS V14.01,2013-04-12 09:45:00,
2013-04-12 04:51:00,27.7,24.3,29.73,North,4,0.0,0.0,87,0.00,,,0.00,VWS V14.01,2013-04-12 09:51:00,
2013-04-12 04:57:00,27.6,24.2,29.74,NNW,343,0.0,0.0,87,0.00,,,0.00,VWS V14.01,2013-04-12 09:57:00,
2013-04-12 05:02:00,27.6,24.2,29.74,North,351,0.0,0.0,87,0.00,,,0.00,VWS V14.01,2013-04-12 10:02:00,
2013-04-12 05:07:00,27.6,24.2,29.73,North,352,0.0,0.0,87,0.00,,,0.00,VWS V14.01,2013-04-12 10:07:00,
2013-04-12 05:13:00,27.6,24.5,29.74,NNW,337,0.0,0.0,88,0.00,,,0.00,VWS V14.01,2013-04-12 10:13:00,
2013-04-12 05:18:00,27.6,24.5,29.74,NNW,327,0.0,0.0,88,0.00,,,0.00,VWS V14.01,2013-04-12 10:18:00,
2013-04-12 05:23:00,27.6,24.5,29.73,NNW,328,0.0,0.0,88,0.00,,,0.00,VWS V14.01,2013-04-12 10:23:00,
2013-04-12 05:28:00,27.6,24.5,29.73,NNW,328,0.0,0.0,88,0.00,,,0.00,VWS V14.01,2013-04-12 10:28:00,
2013-04-12 05:34:00,27.6,24.5,29.73,NNW,329,0.0,0.0,88,0.00,,,0.00,VWS V14.01,2013-04-12 10:34:00,
2013-04-12 05:39:00,27.6,24.5,29.73,NNW,331,0.0,0.0,88,0.00,,,0.00,VWS V14.01,2013-04-12 10:39:00,
2013-04-12 05:45:00,27.6,24.5,29.73,NNW,328,0.0,0.0,88,0.00,,,0.00,VWS V14.01,2013-04-12 10:45:00,
2013-04-12 05:50:00,27.6,24.5,29.73,NW,323,0.0,0.0,88,0.00,,,0.00,VWS V14.01,2013-04-12 10:50:00,
2013-04-12 05:55:00,27.6,24.5,29.73,NW,321,0.0,0.0,88,0.00,,,0.00,VWS V14.01,2013-04-12 10:55:00,
2013-04-12 06:00:00,27.5,24.4,29.73,NNW,327,0.0,0.0,88,0.00,,,0.00,VWS V14.01,2013-04-12 11:00:00,
2013-04-12 06:06:00,27.5,24.4,29.73,NNW,327,0.0,0.0,88,0.00,,,0.00,VWS V14.01,2013-04-12 11:06:00,
2013-04-12 06:11:00,27.6,24.5,29.73,NW,325,0.0,0.0,88,0.00,,,0.00,VWS V14.01,2013-04-12 11:11:00,
2013-04-12 06:17:00,27.5,24.4,29.73,NW,325,0.0,0.0,88,0.00,,,0.00,VWS V14.01,2013-04-12 11:17:00,
2013-04-12 06:22:00,27.5,24.4,29.73,NW,325,0.0,0.0,88,0.00,,,0.00,VWS V14.01,2013-04-12 11:22:00,
2013-04-12 06:28:00,27.5,24.4,29.73,NW,324,0.0,0.0,88,0.00,,,0.00,VWS V14.01,2013-04-12 11:28:00,
2013-04-12 06:33:00,27.5,24.4,29.73,NNW,327,0.0,0.0,88,0.00,,,0.00,VWS V14.01,2013-04-12 11:33:00,
2013-04-12 06:38:00,27.5,24.4,29.73,NW,325,0.0,0.0,88,0.00,,,0.00,VWS V14.01,2013-04-12 11:38:00,
2013-04-12 06:44:00,27.5,24.4,29.73,NW,326,0.0,0.0,88,0.00,,,0.00,VWS V14.01,2013-04-12 11:44:00,
2013-04-12 06:49:00,27.5,24.4,29.73,NW,314,0.0,0.0,88,0.00,,,0.00,VWS V14.01,2013-04-12 11:49:00,
2013-04-12 06:54:00,27.5,24.4,29.73,NW,315,0.0,0.0,88,0.00,,,0.00,VWS V14.01,2013-04-12 11:54:00,
2013-04-12 06:59:00,27.5,24.4,29.74,NW,315,0.0,0.0,88,0.00,,,0.00,VWS V14.01,2013-04-12 11:59:00,
2013-04-12 07:04:00,27.5,24.4,29.74,NW,315,0.0,0.0,88,0.00,,,0.00,VWS V14.01,2013-04-12 12:04:00,
2013-04-12 07:09:00,27.6,24.5,29.74,NW,315,0.0,0.0,88,0.00,,,0.00,VWS V14.01,2013-04-12 12:09:00,
2013-04-12 07:15:00,27.6,24.5,29.74,NW,315,0.0,0.0,88,0.00,,,0.00,VWS V14.01,2013-04-12 12:15:00,
2013-04-12 07:20:00,27.6,24.5,29.74,NW,315,0.0,0.0,88,0.00,,,0.00,VWS V14.01,2013-04-12 12:20:00,
2013-04-12 07:25:00,27.7,24.6,29.74,NW,316,0.0,0.0,88,0.00,,,0.00,VWS V14.01,2013-04-12 12:25:00,
2013-04-12 07:30:00,27.7,24.6,29.74,NW,315,0.0,0.0,88,0.00,,,0.00,VWS V14.01,2013-04-12 12:30:00,
2013-04-12 07:36:00,27.8,24.7,29.74,NW,315,0.0,0.0,88,0.00,,,0.00,VWS V14.01,2013-04-12 12:36:00,
2013-04-12 07:41:00,27.9,24.8,29.73,NW,315,0.0,0.0,88,0.00,,,0.00,VWS V14.01,2013-04-12 12:41:00,
2013-04-12 07:47:00,28.0,24.9,29.74,North,352,0.0,0.0,88,0.00,,,0.00,VWS V14.01,2013-04-12 12:47:00,
2013-04-12 07:52:00,28.0,24.9,29.74,North,350,0.0,0.0,88,0.00,,,0.00,VWS V14.01,2013-04-12 12:52:00,
2013-04-12 07:57:00,28.1,25.0,29.73,North,350,0.0,0.0,88,0.00,,,0.00,VWS V14.01,2013-04-12 12:57:00,
2013-04-12 08:02:00,28.2,25.1,29.73,WNW,299,0.0,0.0,88,0.00,,,0.00,VWS V14.01,2013-04-12 13:02:00,
2013-04-12 08:07:00,28.3,25.2,29.73,North,352,0.0,0.0,88,0.00,,,0.00,VWS V14.01,2013-04-12 13:07:00,
2013-04-12 08:12:00,28.4,25.0,29.74,NW,312,0.0,0.0,87,0.00,,,0.00,VWS V14.01,2013-04-12 13:12:00,
2013-04-12 08:17:00,28.6,25.2,29.74,NW,326,0.0,0.0,87,0.00,,,0.00,VWS V14.01,2013-04-12 13:17:00,
2013-04-12 08:23:00,28.7,25.3,29.74,NNW,341,0.0,0.0,87,0.00,,,0.00,VWS V14.01,2013-04-12 13:23:00,
2013-04-12 08:28:00,28.8,25.4,29.74,NNW,328,0.0,0.0,87,0.00,,,0.00,VWS V14.01,2013-04-12 13:28:00,
2013-04-12 08:33:00,28.9,25.2,29.74,NW,323,0.0,0.0,86,0.00,,,0.00,VWS V14.01,2013-04-12 13:33:00,
2013-04-12 08:38:00,29.0,25.4,29.74,NW,321,0.0,0.0,86,0.00,,,0.00,VWS V14.01,2013-04-12 13:38:00,
2013-04-12 08:44:00,29.1,25.4,29.74,NW,319,0.0,0.0,86,0.00,,,0.00,VWS V14.01,2013-04-12 13:44:00,
2013-04-12 08:49:00,29.2,25.5,29.75,NW,319,0.0,0.0,86,0.00,,,0.00,VWS V14.01,2013-04-12 13:49:00,
2013-04-12 08:54:00,29.2,25.3,29.75,NW,316,0.0,0.0,85,0.00,,,0.00,VWS V14.01,2013-04-12 13:54:00,
2013-04-12 08:59:00,29.3,25.6,29.75,NW,308,0.0,0.0,86,0.00,,,0.00,VWS V14.01,2013-04-12 13:59:00,
2013-04-12 09:05:00,29.4,25.5,29.75,NW,308,0.0,0.0,85,0.00,,,0.00,VWS V14.01,2013-04-12 14:05:00,
2013-04-12 09:10:00,29.6,25.6,29.75,NW,308,0.0,0.0,85,0.00,,,0.00,VWS V14.01,2013-04-12 14:10:00,
2013-04-12 09:15:00,29.6,25.6,29.75,NW,308,0.0,0.0,85,0.00,,,0.00,VWS V14.01,2013-04-12 14:15:00,
2013-04-12 09:21:00,29.7,25.8,29.75,NW,309,0.0,0.0,85,0.00,,,0.00,VWS V14.01,2013-04-12 14:21:00,
2013-04-12 09:26:00,29.8,25.9,29.75,NW,308,0.0,0.0,85,0.00,,,0.00,VWS V14.01,2013-04-12 14:26:00,
2013-04-12 09:31:00,30.1,26.1,29.75,NW,309,0.0,0.0,85,0.00,,,0.00,VWS V14.01,2013-04-12 14:31:00,
2013-04-12 09:37:00,30.1,26.1,29.75,WNW,300,0.0,0.0,85,0.00,,,0.00,VWS V14.01,2013-04-12 14:37:00,
2013-04-12 09:42:00,30.1,25.9,29.75,WNW,300,0.0,0.0,84,0.00,,,0.00,VWS V14.01,2013-04-12 14:42:00,
2013-04-12 09:47:00,30.1,25.9,29.75,WNW,297,0.0,0.0,84,0.00,,,0.00,VWS V14.01,2013-04-12 14:47:00,
2013-04-12 09:53:00,30.2,26.2,29.75,WNW,298,0.0,0.0,85,0.00,,,0.00,VWS V14.01,2013-04-12 14:53:00,
2013-04-12 09:58:00,30.3,26.3,29.75,WNW,296,0.0,0.0,85,0.00,,,0.00,VWS V14.01,2013-04-12 14:58:00,
2013-04-12 10:03:00,30.4,26.1,29.75,NW,319,0.0,0.0,84,0.00,,,0.00,VWS V14.01,2013-04-12 15:03:00,
2013-04-12 10:09:00,30.6,26.4,29.75,NW,311,0.0,0.0,84,0.00,,,0.00,VWS V14.01,2013-04-12 15:09:00,
2013-04-12 10:14:00,30.6,26.4,29.75,WNW,298,0.0,0.0,84,0.00,,,0.00,VWS V14.01,2013-04-12 15:14:00,
2013-04-12 10:19:00,30.5,26.2,29.76,WNW,300,0.0,0.0,84,0.00,,,0.00,VWS V14.01,2013-04-12 15:19:00,
2013-04-12 10:25:00,30.6,26.4,29.76,NW,304,0.0,0.0,84,0.00,,,0.00,VWS V14.01,2013-04-12 15:25:00,
2013-04-12 10:30:00,30.6,26.4,29.76,NW,304,0.0,0.0,84,0.00,,,0.00,VWS V14.01,2013-04-12 15:30:00,
2013-04-12 10:35:00,30.7,26.5,29.76,WNW,303,0.0,0.0,84,0.00,,,0.00,VWS V14.01,2013-04-12 15:35:00,
2013-04-12 10:40:00,30.8,26.5,29.76,WNW,303,0.0,0.0,84,0.00,,,0.00,VWS V14.01,2013-04-12 15:40:00,
2013-04-12 10:47:00,31.1,26.8,29.76,WNW,297,0.0,0.0,84,0.00,,,0.00,VWS V14.01,2013-04-12 15:47:00,
2013-04-12 10:52:00,31.4,27.1,29.76,WNW,303,0.0,0.0,84,0.00,,,0.00,VWS V14.01,2013-04-12 15:52:00,
2013-04-12 10:58:00,31.5,26.9,29.76,WNW,294,0.0,0.0,83,0.00,,,0.00,VWS V14.01,2013-04-12 15:58:00,
2013-04-12 11:03:00,31.6,27.0,29.76,NNW,329,0.0,0.0,83,0.00,,,0.00,VWS V14.01,2013-04-12 16:03:00,
2013-04-12 11:08:00,31.8,27.2,29.77,WNW,299,7.0,10.0,83,0.00,,,0.00,VWS V14.01,2013-04-12 16:08:00,
2013-04-12 11:13:00,31.9,27.3,29.77,WNW,298,7.0,10.0,83,0.00,,,0.00,VWS V14.01,2013-04-12 16:13:00,
2013-04-12 11:18:00,32.1,27.2,29.77,NW,308,6.0,10.0,82,0.00,,,0.00,VWS V14.01,2013-04-12 16:18:00,
2013-04-12 11:24:00,32.4,27.8,29.77,NW,305,5.0,10.0,83,0.00,,,0.00,VWS V14.01,2013-04-12 16:24:00,
2013-04-12 11:29:00,32.6,27.7,29.77,West,281,4.0,11.0,82,0.01,,,0.01,VWS V14.01,2013-04-12 16:29:00,
2013-04-12 11:35:00,32.6,27.7,29.77,WNW,288,3.0,8.0,82,0.01,,,0.01,VWS V14.01,2013-04-12 16:35:00,
2013-04-12 11:40:00,32.5,27.3,29.77,WNW,302,9.0,13.0,81,0.01,,,0.01,VWS V14.01,2013-04-12 16:40:00,
2013-04-12 11:45:00,32.6,27.7,29.77,NW,319,0.0,13.0,82,0.02,,,0.02,VWS V14.01,2013-04-12 16:45:00,
2013-04-12 11:50:00,32.9,27.7,29.77,WNW,298,5.0,13.0,81,0.02,,,0.02,VWS V14.01,2013-04-12 16:50:00,
2013-04-12 11:56:00,32.8,27.6,29.77,NNW,335,0.0,13.0,81,0.03,,,0.03,VWS V14.01,2013-04-12 16:56:00,
2013-04-12 12:01:00,32.8,27.6,29.77,WNW,303,2.0,13.0,81,0.03,,,0.03,VWS V14.01,2013-04-12 17:01:00,
2013-04-12 12:06:00,32.9,27.7,29.77,NW,304,5.0,10.0,81,0.03,,,0.03,VWS V14.01,2013-04-12 17:06:00,
2013-04-12 12:11:00,32.9,27.4,29.77,NW,324,4.0,11.0,80,0.03,,,0.03,VWS V14.01,2013-04-12 17:11:00,
2013-04-12 12:17:00,33.0,27.8,29.77,WNW,297,6.0,11.0,81,0.03,,,0.03,VWS V14.01,2013-04-12 17:17:00,
2013-04-12 12:22:00,33.0,27.8,29.77,NW,312,0.0,11.0,81,0.03,,,0.03,VWS V14.01,2013-04-12 17:22:00,
2013-04-12 12:27:00,33.0,27.5,29.77,WNW,302,6.0,11.0,80,0.03,,,0.03,VWS V14.01,2013-04-12 17:27:00,
2013-04-12 12:33:00,33.1,27.6,29.77,WNW,296,5.0,10.0,80,0.02,,,0.03,VWS V14.01,2013-04-12 17:33:00,
2013-04-12 12:38:00,33.4,27.9,29.77,NW,304,4.0,10.0,80,0.02,,,0.03,VWS V14.01,2013-04-12 17:38:00,
2013-04-12 12:44:00,33.8,28.3,29.77,West,271,2.0,12.0,80,0.03,,,0.04,VWS V14.01,2013-04-12 17:44:00,
2013-04-12 12:48:00,33.9,28.1,29.77,WNW,291,6.0,12.0,79,0.03,,,0.04,VWS V14.01,2013-04-12 17:48:00,
2013-04-12 12:54:00,34.2,28.7,29.77,WNW,296,4.0,12.0,80,0.03,,,0.04,VWS V14.01,2013-04-12 17:54:00,
2013-04-12 12:59:00,34.3,28.5,29.77,WNW,298,5.0,12.0,79,0.04,,,0.05,VWS V14.01,2013-04-12 17:59:00,
2013-04-12 13:04:00,34.3,28.5,29.78,WNW,297,0.0,10.0,79,0.02,,,0.05,VWS V14.01,2013-04-12 18:04:00,
2013-04-12 13:09:00,34.2,28.4,29.78,WNW,300,4.0,10.0,79,0.03,,,0.06,VWS V14.01,2013-04-12 18:09:00,
2013-04-12 13:15:00,34.0,28.2,29.78,West,271,5.0,10.0,79,0.03,,,0.06,VWS V14.01,2013-04-12 18:15:00,
2013-04-12 13:20:00,34.1,28.3,29.77,West,263,6.0,12.0,79,0.03,,,0.06,VWS V14.01,2013-04-12 18:20:00,
2013-04-12 13:26:00,34.4,28.6,29.78,WNW,303,0.0,12.0,79,0.03,,,0.06,VWS V14.01,2013-04-12 18:26:00,
2013-04-12 14:26:00,35.0,28.2,29.79,WNW,283,0.0,11.0,76,0.04,,,0.09,VWS V14.01,2013-04-12 19:26:00,
2013-04-12 14:27:00,34.9,28.1,29.79,WNW,295,3.0,11.0,76,0.04,,,0.09,VWS V14.01,2013-04-12 19:27:00,
2013-04-12 14:32:00,34.8,28.0,29.79,WNW,283,6.0,10.0,76,0.03,,,0.09,VWS V14.01,2013-04-12 19:32:00,
2013-04-12 14:38:00,34.7,27.9,29.79,NNW,331,5.0,12.0,76,0.03,,,0.09,VWS V14.01,2013-04-12 19:38:00,
2013-04-12 14:43:00,34.8,28.0,29.79,WNW,300,4.0,12.0,76,0.03,,,0.09,VWS V14.01,2013-04-12 19:43:00,
2013-04-12 14:48:00,34.8,28.0,29.79,WNW,301,6.0,12.0,76,0.04,,,0.10,VWS V14.01,2013-04-12 19:48:00,
2013-04-12 14:54:00,34.7,27.9,29.79,NNW,333,0.0,12.0,76,0.04,,,0.10,VWS V14.01,2013-04-12 19:54:00,
2013-04-12 14:59:00,34.8,28.3,29.79,NW,322,5.0,12.0,77,0.04,,,0.10,VWS V14.01,2013-04-12 19:59:00,
2013-04-12 15:04:00,34.7,27.9,29.80,WNW,298,5.0,12.0,76,0.02,,,0.10,VWS V14.01,2013-04-12 20:04:00,
2013-04-12 15:09:00,34.6,27.5,29.80,WNW,294,5.0,12.0,75,0.02,,,0.10,VWS V14.01,2013-04-12 20:09:00,
2013-04-12 15:14:00,34.7,27.9,29.80,NW,306,5.0,12.0,76,0.02,,,0.10,VWS V14.01,2013-04-12 20:14:00,
2013-04-12 15:20:00,34.8,28.0,29.80,NW,310,4.0,12.0,76,0.02,,,0.10,VWS V14.01,2013-04-12 20:20:00,
2013-04-12 15:25:00,34.9,28.1,29.80,WNW,302,5.0,12.0,76,0.02,,,0.10,VWS V14.01,2013-04-12 20:25:00,
2013-04-12 15:30:00,35.0,28.2,29.80,WNW,294,3.0,12.0,76,0.02,,,0.10,VWS V14.01,2013-04-12 20:30:00,
2013-04-12 15:35:00,35.0,27.9,29.80,WNW,300,2.0,7.0,75,0.01,,,0.10,VWS V14.01,2013-04-12 20:35:00,
2013-04-12 15:40:00,35.1,28.0,29.80,WNW,291,4.0,10.0,75,0.01,,,0.10,VWS V14.01,2013-04-12 20:40:00,
2013-04-12 15:47:00,35.2,28.1,29.80,NW,322,3.0,13.0,75,0.02,,,0.11,VWS V14.01,2013-04-12 20:47:00,
2013-04-12 15:52:00,35.2,28.1,29.80,NW,325,3.0,13.0,75,0.02,,,0.11,VWS V14.01,2013-04-12 20:52:00,
2013-04-12 15:57:00,35.2,28.1,29.80,NW,320,8.0,13.0,75,0.02,,,0.11,VWS V14.01,2013-04-12 20:57:00,
2013-04-12 16:02:00,35.1,28.0,29.80,NW,314,4.0,11.0,75,0.01,,,0.11,VWS V14.01,2013-04-12 21:02:00,
2013-04-12 16:07:00,35.1,27.7,29.80,NW,306,2.0,11.0,74,0.01,,,0.11,VWS V14.01,2013-04-12 21:07:00,
2013-04-12 16:12:00,35.3,28.2,29.80,WNW,303,9.0,11.0,75,0.01,,,0.11,VWS V14.01,2013-04-12 21:12:00,
2013-04-12 16:18:00,35.4,28.0,29.80,WNW,302,3.0,11.0,74,0.02,,,0.12,VWS V14.01,2013-04-12 21:18:00,
2013-04-12 16:23:00,35.6,28.1,29.81,WNW,302,4.0,11.0,74,0.02,,,0.12,VWS V14.01,2013-04-12 21:23:00,
2013-04-12 16:28:00,35.9,28.4,29.81,NW,304,2.0,11.0,74,0.02,,,0.12,VWS V14.01,2013-04-12 21:28:00,
2013-04-12 16:33:00,36.0,28.2,29.81,North,8,4.0,10.0,73,0.02,,,0.12,VWS V14.01,2013-04-12 21:33:00,
2013-04-12 16:39:00,36.1,28.3,29.81,NW,304,7.0,13.0,73,0.02,,,0.12,VWS V14.01,2013-04-12 21:39:00,
2013-04-12 16:44:00,35.8,28.0,29.81,NNW,329,2.0,13.0,73,0.02,,,0.12,VWS V14.01,2013-04-12 21:44:00,
2013-04-12 16:49:00,35.9,28.4,29.81,NW,306,5.0,13.0,74,0.03,,,0.13,VWS V14.01,2013-04-12 21:49:00,
2013-04-12 16:54:00,35.6,28.5,29.81,NW,308,3.0,13.0,75,0.03,,,0.13,VWS V14.01,2013-04-12 21:54:00,
2013-04-12 16:59:00,35.3,28.2,29.82,WNW,295,7.0,13.0,75,0.03,,,0.13,VWS V14.01,2013-04-12 21:59:00,
2013-04-12 17:05:00,35.1,28.3,29.82,WNW,297,10.0,12.0,76,0.02,,,0.13,VWS V14.01,2013-04-12 22:05:00,
2013-04-12 17:10:00,34.9,28.4,29.82,NW,308,6.0,15.0,77,0.03,,,0.14,VWS V14.01,2013-04-12 22:10:00,
2013-04-12 17:15:00,34.6,28.5,29.82,WNW,296,5.0,15.0,78,0.03,,,0.14,VWS V14.01,2013-04-12 22:15:00,
2013-04-12 17:20:00,34.6,28.1,29.82,NW,310,6.0,15.0,77,0.03,,,0.14,VWS V14.01,2013-04-12 22:20:00,
2013-04-12 17:26:00,34.7,27.9,29.82,NW,321,6.0,15.0,76,0.03,,,0.14,VWS V14.01,2013-04-12 22:26:00,
2013-04-12 17:32:00,34.8,28.0,29.82,NW,316,4.0,6.0,76,0.02,,,0.14,VWS V14.01,2013-04-12 22:32:00,
2013-04-12 17:37:00,34.9,28.1,29.82,NNW,345,4.0,12.0,76,0.02,,,0.14,VWS V14.01,2013-04-12 22:37:00,
2013-04-12 17:42:00,34.8,28.0,29.83,NNW,332,2.0,12.0,76,0.02,,,0.14,VWS V14.01,2013-04-12 22:42:00,
2013-04-12 17:47:00,35.0,28.2,29.83,NNW,340,1.0,12.0,76,0.02,,,0.14,VWS V14.01,2013-04-12 22:47:00,
2013-04-12 17:53:00,35.0,28.2,29.83,NNW,329,12.0,16.0,76,0.03,,,0.15,VWS V14.01,2013-04-12 22:53:00,
2013-04-12 17:58:00,34.8,28.0,29.83,NW,307,3.0,16.0,76,0.03,,,0.15,VWS V14.01,2013-04-12 22:58:00,
2013-04-12 18:03:00,34.8,28.3,29.83,NW,320,7.0,15.0,77,0.02,,,0.15,VWS V14.01,2013-04-12 23:03:00,
2013-04-12 18:08:00,34.7,28.2,29.83,NW,322,5.0,15.0,77,0.02,,,0.15,VWS V14.01,2013-04-12 23:08:00,
2013-04-12 18:13:00,34.7,28.2,29.83,WNW,287,1.0,15.0,77,0.02,,,0.15,VWS V14.01,2013-04-12 23:13:00,
2013-04-12 18:18:00,34.8,28.3,29.84,North,350,2.0,15.0,77,0.02,,,0.15,VWS V14.01,2013-04-12 23:18:00,
2013-04-12 18:24:00,34.7,27.9,29.84,NW,316,10.0,15.0,76,0.02,,,0.15,VWS V14.01,2013-04-12 23:24:00,
2013-04-12 18:29:00,34.5,27.7,29.84,WNW,298,5.0,15.0,76,0.02,,,0.15,VWS V14.01,2013-04-12 23:29:00,
2013-04-12 18:34:00,34.5,27.7,29.84,NW,314,0.0,3.0,76,0.01,,,0.15,VWS V14.01,2013-04-12 23:34:00,
2013-04-12 18:39:00,34.5,27.4,29.84,NNW,341,7.0,11.0,75,0.02,,,0.16,VWS V14.01,2013-04-12 23:39:00,
2013-04-12 18:45:00,34.4,27.6,29.84,NNW,333,0.0,11.0,76,0.02,,,0.16,VWS V14.01,2013-04-12 23:45:00,
2013-04-12 18:50:00,34.3,27.5,29.84,NNW,333,5.0,11.0,76,0.02,,,0.16,VWS V14.01,2013-04-12 23:50:00,
2013-04-12 18:55:00,34.2,27.8,29.85,WNW,302,8.0,11.0,77,0.02,,,0.16,VWS V14.01,2013-04-12 23:55:00,
2013-04-12 19:00:00,34.1,27.7,29.85,NNW,332,3.0,11.0,77,0.02,,,0.16,VWS V14.01,2013-04-13 00:00:00,
2013-04-12 19:06:00,34.1,28.0,29.85,NW,321,5.0,6.0,78,0.01,,,0.16,VWS V14.01,2013-04-13 00:06:00,
2013-04-12 19:12:00,34.0,27.9,29.85,NW,316,0.0,7.0,78,0.01,,,0.16,VWS V14.01,2013-04-13 00:12:00,
2013-04-12 19:17:00,33.9,27.8,29.85,NW,321,8.0,9.0,78,0.01,,,0.16,VWS V14.01,2013-04-13 00:17:00,
2013-04-12 19:22:00,33.8,27.7,29.85,NW,314,3.0,12.0,78,0.01,,,0.16,VWS V14.01,2013-04-13 00:22:00,
2013-04-12 19:27:00,33.8,27.4,29.85,NW,321,0.0,12.0,77,0.01,,,0.16,VWS V14.01,2013-04-13 00:27:00,
2013-04-12 19:33:00,33.7,27.6,29.85,NNW,337,3.0,8.0,78,0.01,,,0.16,VWS V14.01,2013-04-13 00:33:00,
2013-04-12 19:38:00,33.5,27.7,29.85,North,354,5.0,10.0,79,0.01,,,0.16,VWS V14.01,2013-04-13 00:38:00,
2013-04-12 19:43:00,33.4,27.6,29.86,NW,319,5.0,10.0,79,0.01,,,0.16,VWS V14.01,2013-04-13 00:43:00,
2013-04-12 19:48:00,33.2,27.4,29.86,North,349,3.0,10.0,79,0.01,,,0.16,VWS V14.01,2013-04-13 00:48:00,
2013-04-12 19:53:00,33.0,27.2,29.86,NW,323,5.0,10.0,79,0.01,,,0.16,VWS V14.01,2013-04-13 00:53:00,
2013-04-12 19:59:00,32.9,27.1,29.86,NNW,331,6.0,10.0,79,0.01,,,0.16,VWS V14.01,2013-04-13 00:59:00,
2013-04-12 20:04:00,32.8,27.0,29.86,North,356,3.0,6.0,79,0.00,,,0.16,VWS V14.01,2013-04-13 01:04:00,
2013-04-12 20:09:00,32.7,26.9,29.86,North,358,1.0,9.0,79,0.00,,,0.16,VWS V14.01,2013-04-13 01:09:00,
2013-04-12 20:14:00,32.6,27.1,29.86,NNW,341,0.0,9.0,80,0.00,,,0.16,VWS V14.01,2013-04-13 01:14:00,
2013-04-12 20:20:00,32.5,27.0,29.86,NW,314,2.0,9.0,80,0.00,,,0.16,VWS V14.01,2013-04-13 01:20:00,
2013-04-12 20:25:00,32.4,27.2,29.86,NNW,339,0.0,9.0,81,0.00,,,0.16,VWS V14.01,2013-04-13 01:25:00,
2013-04-12 20:30:00,32.3,27.1,29.86,NNW,343,0.0,9.0,81,0.00,,,0.16,VWS V14.01,2013-04-13 01:30:00,
2013-04-12 20:35:00,32.2,27.3,29.87,NNW,330,1.0,8.0,82,0.00,,,0.16,VWS V14.01,2013-04-13 01:35:00,
2013-04-12 20:40:00,32.1,27.2,29.87,NNW,330,0.0,8.0,82,0.00,,,0.16,VWS V14.01,2013-04-13 01:40:00,
2013-04-12 20:46:00,31.9,27.3,29.87,NNW,329,0.0,8.0,83,0.00,,,0.16,VWS V14.01,2013-04-13 01:46:00,
2013-04-12 20:51:00,31.8,27.2,29.87,NW,322,1.0,8.0,83,0.00,,,0.16,VWS V14.01,2013-04-13 01:51:00,
2013-04-12 20:56:00,31.8,27.2,29.87,NW,323,0.0,8.0,83,0.00,,,0.16,VWS V14.01,2013-04-13 01:56:00,
2013-04-12 21:02:00,31.7,27.1,29.87,NW,323,0.0,4.0,83,0.00,,,0.16,VWS V14.01,2013-04-13 02:02:00,
2013-04-12 21:07:00,31.7,27.1,29.87,NW,320,2.0,5.0,83,0.00,,,0.16,VWS V14.01,2013-04-13 02:07:00,
2013-04-12 21:12:00,31.7,27.4,29.87,NW,321,3.0,5.0,84,0.00,,,0.16,VWS V14.01,2013-04-13 02:12:00,
2013-04-12 21:18:00,31.6,27.3,29.88,NW,321,2.0,5.0,84,0.00,,,0.16,VWS V14.01,2013-04-13 02:18:00,
2013-04-12 21:23:00,31.6,27.3,29.88,NW,320,0.0,5.0,84,0.00,,,0.16,VWS V14.01,2013-04-13 02:23:00,
2013-04-12 21:28:00,31.5,27.2,29.88,NW,321,0.0,5.0,84,0.00,,,0.16,VWS V14.01,2013-04-13 02:28:00,
2013-04-12 21:33:00,31.5,27.2,29.88,NW,321,0.0,3.0,84,0.00,,,0.16,VWS V14.01,2013-04-13 02:33:00,
2013-04-12 21:39:00,31.5,27.2,29.88,NW,319,4.0,6.0,84,0.00,,,0.16,VWS V14.01,2013-04-13 02:39:00,
2013-04-12 21:44:00,31.4,27.1,29.88,NW,319,3.0,6.0,84,0.00,,,0.16,VWS V14.01,2013-04-13 02:44:00,
2013-04-12 21:49:00,31.3,27.0,29.88,NW,319,0.0,6.0,84,0.00,,,0.16,VWS V14.01,2013-04-13 02:49:00,
2013-04-12 21:55:00,31.3,27.0,29.88,NW,308,3.0,6.0,84,0.00,,,0.16,VWS V14.01,2013-04-13 02:55:00,
2013-04-12 22:00:00,31.2,26.9,29.88,NW,308,5.0,6.0,84,0.00,,,0.16,VWS V14.01,2013-04-13 03:00:00,
2013-04-12 22:05:00,31.1,26.8,29.89,NW,308,0.0,4.0,84,0.00,,,0.16,VWS V14.01,2013-04-13 03:05:00,
2013-04-12 22:11:00,31.1,26.8,29.89,NW,308,0.0,4.0,84,0.00,,,0.16,VWS V14.01,2013-04-13 03:11:00,
2013-04-12 22:17:00,31.0,26.7,29.89,NW,308,0.0,4.0,84,0.00,,,0.16,VWS V14.01,2013-04-13 03:17:00,
2013-04-12 22:22:00,31.0,26.7,29.89,NW,308,0.0,4.0,84,0.00,,,0.16,VWS V14.01,2013-04-13 03:22:00,
2013-04-12 22:28:00,30.9,26.6,29.89,NW,308,0.0,4.0,84,0.00,,,0.16,VWS V14.01,2013-04-13 03:28:00,
2013-04-12 22:33:00,30.8,26.8,29.89,NW,308,0.0,3.0,85,0.00,,,0.16,VWS V14.01,2013-04-13 03:33:00,
2013-04-12 22:38:00,30.8,26.8,29.89,NW,308,0.0,3.0,85,0.00,,,0.16,VWS V14.01,2013-04-13 03:38:00,
2013-04-12 22:43:00,30.7,26.7,29.88,NW,308,0.0,3.0,85,0.00,,,0.16,VWS V14.01,2013-04-13 03:43:00,
2013-04-12 22:48:00,30.6,26.6,29.88,NW,308,0.0,3.0,85,0.00,,,0.16,VWS V14.01,2013-04-13 03:48:00,
2013-04-12 22:53:00,30.6,26.6,29.88,NW,308,0.0,3.0,85,0.00,,,0.16,VWS V14.01,2013-04-13 03:53:00,
2013-04-12 22:58:00,30.5,26.5,29.88,NW,308,0.0,3.0,85,0.00,,,0.16,VWS V14.01,2013-04-13 03:58:00,
2013-04-12 23:00:00,30.5,26.5,29.88,NW,308,0.0,3.0,85,0.00,,,0.16,VWS V14.01,2013-04-13 04:00:00,
2013-04-12 23:01:00,30.5,26.5,29.88,NW,308,0.0,0.0,85,0.00,,,0.16,VWS V14.01,2013-04-13 04:01:00,
2013-04-12 23:02:00,30.5,26.5,29.88,NW,308,0.0,0.0,85,0.00,,,0.16,VWS V14.01,2013-04-13 04:02:00,
2013-04-12 23:06:00,30.4,26.4,29.88,NW,308,0.0,0.0,85,0.00,,,0.16,VWS V14.01,2013-04-13 04:06:00,
2013-04-12 23:12:00,30.3,26.6,29.88,NW,308,0.0,0.0,86,0.00,,,0.16,VWS V14.01,2013-04-13 04:12:00,
2013-04-12 23:17:00,30.3,26.6,29.88,NW,308,0.0,0.0,86,0.00,,,0.16,VWS V14.01,2013-04-13 04:17:00,
2013-04-12 23:22:00,30.2,26.5,29.89,NW,308,0.0,0.0,86,0.00,,,0.16,VWS V14.01,2013-04-13 04:22:00,
2013-04-12 23:28:00,30.2,28.2,29.89,NW,308,0.0,0.0,92,0.00,,,0.16,VWS V14.01,2013-04-13 04:28:00,
2013-04-12 23:33:00,30.1,26.4,29.89,NW,308,0.0,0.0,86,0.00,,,0.16,VWS V14.01,2013-04-13 04:33:00,
2013-04-12 23:38:00,30.1,26.4,29.89,NW,308,0.0,2.0,86,0.00,,,0.16,VWS V14.01,2013-04-13 04:38:00,
2013-04-12 23:43:00,30.1,26.4,29.88,NW,308,0.0,2.0,86,0.00,,,0.16,VWS V14.01,2013-04-13 04:43:00,
2013-04-12 23:48:00,30.0,26.3,29.89,NW,308,0.0,2.0,86,0.00,,,0.16,VWS V14.01,2013-04-13 04:48:00,
2013-04-12 23:54:00,30.0,26.0,29.88,NW,308,0.0,2.0,85,0.00,,,0.16,VWS V14.01,2013-04-13 04:54:00,
2013-04-12 23:59:00,30.0,26.0,29.89,NW,308,0.0,2.0,85,0.00,,,0.16,VWS V14.01,2013-04-13 04:59:00,